Simultaneous Nadir Overpasses (SNOs) Predictions

Prediction of SNOs between LANDSAT-8 and NOAA-19 Satellite Orbit:

Table of predicted SNOs for the next 14.0 days since TLE Epoch: 3/11/2023
Index Date (LANDSAT-8) Time (LANDSAT-8) Lat,Lon (LANDSAT-8) SZA (LANDSAT-8 ) Date (NOAA-19) Time (NOAA-19) Lat,Lon (NOAA-19) SZA (NOAA-19 ) Distance(km) Time Diff (sec)
1 03/12/2023 15:08:53 -80.93, 169.59 94.28 03/12/2023 15:09:04 -80.93, 169.50 94.28 1.52 11
2 03/14/2023 20:42:36 80.94, -93.74 84.88 03/14/2023 20:41:47 80.93, -93.76 84.86 0.84 49
3 03/14/2023 21:32:03 -80.94, 73.86 95.14 03/14/2023 21:32:41 -80.93, 73.90 95.13 0.88 38
4 03/17/2023 03:05:46 80.93, 170.35 83.99 03/17/2023 03:05:24 80.93, 170.40 83.98 0.86 22
5 03/17/2023 03:55:13 -80.93, -22.04 96.04 03/17/2023 03:56:19 -80.93, -22.17 96.02 2.39 66
6 03/19/2023 09:28:54 80.94, 74.63 83.12 03/19/2023 09:29:00 80.93, 74.45 83.10 3.23 6
7 03/21/2023 15:02:37 -80.93, 171.11 97.76 03/21/2023 15:01:34 -80.93, 171.16 97.78 1.00 63
8 03/21/2023 15:52:03 80.93, -21.25 82.23 03/21/2023 15:52:36 80.93, -21.24 82.25 0.45 33
9 03/23/2023 21:25:45 -80.94, 75.44 98.62 03/23/2023 21:25:10 -80.93, 75.55 98.63 2.11 35



Historial Predications of SNOs between LANDSAT-8 and NOAA-19
